User: anonymous   Login
Location: Meriden
(44.0740°N, 93.3870°W)
Time: 10:44:37
(UTC-05:00)
Language:

Hamsat - Orbit

View from above orbital plane
View from above orbital plane
View from above satellite
View from above satellite

Ground track
Ground track

The orbit data is extracted from the following two-line orbital elements,

1 28650U 05017B   15145.95292174  .00001031  00000-0  11927-3 0  9997
2 28650 097.5739 139.4250 0025877 104.3490 256.0602 14.87349134544140
Epoch (UTC): 25 May 2015 22:52:12
Eccentricity: 0.0025877
inclination: 97.5739°
perigee height: 588 km
apogee height: 624 km
right ascension of ascending node: 139.4250°
argument of perigee: 104.3490°
revolutions per day: 14.87349134
mean anomaly at epoch: 256.0602°
orbit number at epoch: 54414

The dashed part of the orbit path shows where the satellite is in the earth's shadow,  

DLR